Cloud_Cover
70 100 70 99 100 1 5 76 100 100 100 100 98 65 100 100 61 94 90 7 5 52 100 100 100 100 5 4 0 7 6 5 12 5 56 95 99 100 100 100 77 23 54
100 28 55 24 100 100 34 2 29 100 100 100 100 96 100 100 66 100 88 84 21 5 33 100 100 100 82 4 4 22 20 81 4 41 80 64 22 56 100 100 100 100 30
100 100 41 5 19 100 41 4 5 58 100 99 100 99 100 100 100 100 100 100 83 63 100 100 100 100 56 98 5 47 96 26 18 95 62 30 12 37 82 39 98 100 100
96 60 19 68 42 99 32 4 0 46 75 100 100 100 100 100 100 100 96 100 100 42 58 100 39 10 5 15 5 5 2 83 4 11 4 5 1 1 2 81 39 100 97
16 96 6 13 5 78 25 5 4 4 100 17 100 100 100 100 100 100 100 100 90 32 90 20 100 7 7 5 5 0 0 2 5 5 5 4 0 0 0 0 5 48 100
7 7 88 5 3 5 96 13 6 4 38 98 100 100 100 100 100 100 100 100 99 64 99 68 96 58 5 18 11 5 5 5 4 0 0 4 5 2 0 0 0 5 8
6 77 10 36 8 10 85 100 8 12 4 60 100 100 100 94 100 100 100 100 100 68 65 18 35 100 30 27 5 5 5 5 5 0 0 2 4 5 0 0 0 5 11
0 2 77 77 29 33 95 100 96 5 5 13 100 100 100 100 100 100 100 98 86 37 38 97 96 17 58 8 5 5 5 5 5 0 5 4 5 1 5 3 0 4 14
0 0 0 10 6 43 26 100 100 100 100 32 24 95 94 100 100 100 100 100 100 100 100 89 58 21 6 54 98 36 11 5 5 1 5 5 5 5 5 5 3 0 3
0 5 5 1 0 28 14 53 100 89 97 89 49 95 83 10 61 100 100 100 100 49 56 60 5 5 12 100 100 10 5 50 5 5 5 12 68 8 4 5 4 2 0
3 0 3 4 0 0 4 94 18 66 92 100 24 97 100 96 58 36 6 5 5 5 5 5 23 11 50 100 99 29 1 5 4 2 2 47 20 12 39 47 61 6 5
64 5 0 0 2 5 0 0 76 42 28 100 100 100 100 80 84 64 5 5 0 4 23 5 5 27 100 12 63 94 88 26 18 100 66 11 45 10 6 5 21 16 17
29 5 5 0 0 4 0 0 0 17 5 80 100 100 100 100 100 96 27 5 5 5 5 2 0 0 4 15 6 5 49 99 100 27 5 5 48 84 72 34 5 5 22
7 5 4 0 0 0 0 0 0 0 2 22 31 40 33 100 100 100 100 59 5 5 4 4 5 4 0 2 5 5 10 67 68 5 45 20 38 96 23 98 100 56 23
79 7 2 0 5 0 0 0 0 0 0 0 5 8 10 5 2 4 16 63 99 26 5 5 5 4 0 0 5 60 68 23 94 99 100 77 96 98 93 100 98 100 84
88 37 5 5 1 2 0 0 0 0 0 0 0 0 0 0 0 0 0 0 0 5 5 5 3 0 0 0 0 19 99 100 100 100 100 100 100 100 99 100 94 14 22
48 35 5 5 0 1 9 44 1 0 0 0 0 0 0 0 0 0 0 0 0 1 0 6 21 56 22 73 45 21 72 100 100 100 100 100 100 27 44 70 51 56 95
20 31 54 5 3 0 0 0 0 0 0 0 0 0 0 0 0 0 0 0 0 0 6 37 89 87 54 17 32 95 100 100 100 100 100 100 100 100 77 5 5 5 5
79 5 12 92 5 5 0 0 0 0 0 0 0 0 5 0 0 0 0 0 0 0 0 0 35 74 28 41 97 100 100 100 100 100 100 100 100 100 100 72 5 5 4
74 84 6 26 5 3 6 0 4 4 0 0 0 4 4 5 0 0 0 0 0 0 4 33 47 26 31 52 99 100 100 100 100 100 100 100 100 67 100 100 40 24 5
20 80 90 94 75 7 64 28 1 2 1 6 4 3 0 0 0 0 1 3 26 36 52 90 76 50 16 47 95 100 100 100 100 100 100 100 89 32 73 100 86 30 66
100 100 96 62 44 6 5 6 5 1 5 9 94 73 5 0 6 6 44 40 40 48 96 100 100 98 85 88 97 100 100 100 100 100 100 97 100 24 82 100 100 100 100
96 98 81 30 92 92 46 6 54 22 10 5 31 34 36 34 28 36 58 65 54 100 100 100 100 97 67 52 100 100 100 100 100 100 100 100 100 85 100 90 100 100 100
99 100 100 100 100 66 95 93 96 39 85 100 100 100 100 98 70 45 34 60 100 85 40 55 83 51 20 6 83 92 100 100 100 100 100 100 89 100 97 100 100 100 100
100 91 54 54 69 94 77 75 81 23 82 100 100 100 100 100 100 100 100 100 87 16 18 31 10 12 10 3 49 100 100 100 90 96 100 95 94 100 99 100 100 100 100
100 28 56 50 6 49 52 24 67 52 39 100 100 100 100 100 100 100 100 100 94 12 19 10 5 0 0 36 68 82 100 100 100 99 100 100 100 100 100 100 100 100 100